Orbital Elements at Epoch 2459200.5 (2020-Dec-17.0) TDB
Reference: JPL 25 (heliocentric ecliptic J2000)
Element | Value | Uncertainty (1-sigma) | Units |
e | .2587720815162055 | 7.6897e-08 | |
a | 2.523451095660848 | 8.7375e-09 | au |
q | 1.870452403032341 | 1.9513e-07 | au |
i | 4.604017394862946 | 4.6583e-06 | deg |
node | 322.3683682249078 | 6.2239e-05 | deg |
peri | 31.00730129079937 | 6.2635e-05 | deg |
M | 209.6992692034488 | 7.9067e-06 | deg |
tp | 2459811.792907811535 (2022-Aug-20.29290781) | 3.3639e-05 | TDB |
period | 1464.167510336565 4.01 | 7.6046e-06 2.082e-08 | d yr |
n | .2458735065889064 | 1.277e-09 | deg/d |
Q | 3.176449788289355 | 1.0999e-08 | au |
|
| | Orbit Determination Parameters
Additional Information
|